Location: La Fredeussais
(48.1780°N, 1.3980°W)
Time: 07:04:07
(UTC+00:00)

STARLINK-2731 - Pass Details

Date: 30 July 2021
Orbit: 547 x 547 km, 53.1° (Epoch: 19 September)

Event Time Altitude Azimuth Distance (km) Brightness Sun altitude
Rises 21:12:54 0° 290° (WNW) 2,716 8.4 -12.4°
Reaches altitude 10° 21:15:39 10° 271° (W) 1,819 6.9 -12.8°
Maximum altitude 21:18:31 18° 227° (SW) 1,362 5.6 -13.1°
Enters shadow 21:21:06 11° 186° (S) 1,739 5.8 -13.4°
